sat.trackr.live / text

‹ back to catalog

STARLINK-5650

NORAD 55475 · 2023-015AC

PAYLOAD ACTIVE UNKNOWN

§ Identity

Operator
Country
US
Launch date
2023-02-02
Launch site
AFETR
Launch vehicle
Mass (kg)
RCS (m²)

Purposes: comms

External: N2YO · Heavens-Above · Gunter

§ Orbital elements

Epoch: 2026-09-20T13:33:41.778432Z

Period
94.27 min
Inclination
43.0042°
Eccentricity
0.0001222
Mean motion
15.27581477 rev/d
Perigee alt
482.2 km
Apogee alt
483.9 km
Semi-major
6,861.2 km
B*
-3.6105e-5
RAAN
308.3392°
Arg perigee
300.8574°
Mean anomaly
59.2158°
Rev number
20,052

§ Raw data

STARLINK-56501 55475U 23015AC  26263.56506688 -.00001256  00000+0 -36105-4 0  99942 55475  43.0042 308.3392 0001222 300.8574  59.2158 15.27581477200529

JSON: /api/v1/satellites/55475 · /tle

For live sub-satellite position, see the globe view (requires WebGL).

§ Visibility from observer

Set your observer location to see the next 7 days of passes ≥ 10°. The values pass through the URL so the page stays shareable.

No JS? Fill the form by hand. The geolocation button needs JavaScript.